Location: Maignaut
(43.8886°N, 0.4051°E)
Time: 05:45:57
(UTC+00:00)

GPS 2-04 Rocket1 - Pass Details

Date: 27 February 2020
Orbit: 418 x 550 km, 35.6° (Epoch: 09 April)

Event Time Altitude Azimuth Distance (km) Brightness Sun altitude
Rises 19:07:07 0° 255° (WSW) 2,704 7.8 -15.8°
Reaches altitude 10° 19:09:40 10° 242° (WSW) 1,816 6.3 -16.3°
Maximum altitude 19:13:07 25° 187° (S) 1,128 4.4 -16.9°
Enters shadow 19:14:50 19° 151° (SSE) 1,327 4.4 -17.2°
